| time (UTC) | temp C | wind direction | speed KPH | gust KPH | rain 1hr cm | rain 24hr cm | rain mn cm | humidity % | barometer mb |
| 20260506232131 | 20 | 300 | 9.7 | 24.1 | 0.00 | 0.00 | 0.00 | 76 | 1011.5 |
| 20260506231644 | 20 | 349 | 12.9 | 24.1 | 0.00 | 0.00 | 0.00 | 75 | 1011.6 |
| 20260506231147 | 20 | 5 | 9.7 | 32.2 | 0.00 | 0.00 | 0.00 | 76 | 1011.4 |
| 20260506230657 | 21 | 350 | 12.9 | 29.0 | 0.00 | 0.00 | 0.00 | 74 | 1011.4 |
| 20260506230148 | 21 | 337 | 14.5 | 33.8 | 0.00 | 0.00 | 0.00 | 74 | 1011.2 |
| 20260506225633 | 21 | 10 | 9.7 | 33.8 | 0.00 | 0.00 | 0.00 | 74 | 1011.1 |
| 20260506225139 | 21 | 329 | 11.3 | 35.4 | 0.00 | 0.00 | 0.00 | 73 | 1011.1 |
| 20260506224644 | 22 | 5 | 17.7 | 37.0 | 0.00 | 0.00 | 0.00 | 71 | 1011.2 |
| 20260506224135 | 22 | 5 | 11.3 | 33.8 | 0.00 | 0.00 | 0.00 | 71 | 1011.1 |
| 20260506223633 | 22 | 36 | 12.9 | 32.2 | 0.00 | 0.00 | 0.00 | 72 | 1011.0 |
| 20260506223142 | 23 | 355 | 12.9 | 32.2 | 0.00 | 0.00 | 0.00 | 71 | 1010.9 |
| 20260506222655 | 23 | 338 | 11.3 | 25.7 | 0.00 | 0.00 | 0.00 | 71 | 1010.8 |
| 20260506222136 | 23 | 19 | 14.5 | 30.6 | 0.00 | 0.00 | 0.00 | 70 | 1010.6 |
| 20260506221705 | 23 | 5 | 16.1 | 30.6 | 0.00 | 0.00 | 0.00 | 71 | 1010.6 |
| 20260506221220 | 24 | 12 | 14.5 | 32.2 | 0.00 | 0.00 | 0.00 | 70 | 1010.6 |
| 20260506220639 | 24 | 22 | 16.1 | 32.2 | 0.00 | 0.00 | 0.00 | 70 | 1010.6 |
| 20260506220152 | 24 | 325 | 12.9 | 32.2 | 0.00 | 0.00 | 0.00 | 71 | 1010.5 |
| 20260506215639 | 24 | 360 | 19.3 | 32.2 | 0.00 | 0.00 | 0.00 | 70 | 1010.4 |
| 20260506215151 | 25 | 355 | 19.3 | 30.6 | 0.00 | 0.00 | 0.00 | 70 | 1010.6 |
| 20260506214634 | 25 | 336 | 16.1 | 30.6 | 0.00 | 0.00 | 0.00 | 72 | 1010.6 |
| 20260506214147 | 25 | 31 | 11.3 | 25.7 | 0.00 | 0.00 | 0.00 | 71 | 1010.7 |
| 20260506213720 | 25 | 18 | 12.9 | 25.7 | 0.00 | 0.00 | 0.00 | 71 | 1010.6 |
| 20260506213157 | 25 | 11 | 12.9 | 30.6 | 0.00 | 0.00 | 0.00 | 71 | 1010.6 |
| 20260506212627 | 25 | 40 | 14.5 | 30.6 | 0.00 | 0.00 | 0.00 | 72 | 1010.4 |
| 20260506212138 | 25 | 345 | 14.5 | 30.6 | 0.00 | 0.00 | 0.00 | 71 | 1010.3 |
| 20260506211640 | 25 | 35 | 16.1 | 29.0 | 0.00 | 0.00 | 0.00 | 73 | 1010.3 |
| 20260506211150 | 25 | 32 | 9.7 | 30.6 | 0.00 | 0.00 | 0.00 | 74 | 1010.4 |
| 20260506210703 | 25 | 49 | 14.5 | 25.7 | 0.00 | 0.00 | 0.00 | 73 | 1010.5 |
| 20260506210144 | 25 | 55 | 11.3 | 24.1 | 0.00 | 0.00 | 0.00 | 74 | 1010.6 |
| 20260506205656 | 25 | 59 | 14.5 | 24.1 | 0.00 | 0.00 | 0.00 | 73 | 1010.3 |
| 20260506205146 | 25 | 355 | 16.1 | 24.1 | 0.00 | 0.00 | 0.00 | 76 | 1010.3 |
| 20260506204717 | 24 | 22 | 14.5 | 25.7 | 0.00 | 0.00 | 0.00 | 76 | 1010.5 |
| 20260506204157 | 25 | 5 | 9.7 | 30.6 | 0.00 | 0.00 | 0.00 | 76 | 1010.6 |
| 20260506203648 | 25 | 23 | 12.9 | 32.2 | 0.00 | 0.00 | 0.00 | 75 | 1010.5 |
| 20260506203159 | 25 | 5 | 12.9 | 32.2 | 0.00 | 0.00 | 0.00 | 73 | 1010.5 |
| 20260506202656 | 26 | 30 | 16.1 | 24.1 | 0.00 | 0.00 | 0.00 | 71 | 1010.6 |
| 20260506202126 | 27 | 327 | 4.8 | 20.9 | 0.00 | 0.00 | 0.00 | 76 | 1010.5 |
| 20260506201629 | 27 | 58 | 1.6 | 11.3 | 0.00 | 0.00 | 0.00 | 76 | 1010.3 |
| 20260506201140 | 27 | 53 | 4.8 | 12.9 | 0.00 | 0.00 | 0.00 | 75 | 1010.4 |
| 20260506200651 | 27 | 56 | 6.4 | 12.9 | 0.00 | 0.00 | 0.00 | 73 | 1010.6 |
| 20260506200158 | 28 | 355 | 1.6 | 8.0 | 0.00 | 0.00 | 0.00 | 72 | 1010.6 |
| 20260506195659 | 28 | 66 | 0.0 | 0.0 | 0.00 | 0.00 | 0.00 | 73 | 1010.4 |
| 20260506195150 | 27 | 70 | 0.0 | 3.2 | 0.00 | 0.00 | 0.00 | 72 | 1010.5 |
| 20260506194632 | 27 | 70 | 0.0 | 9.7 | 0.00 | 0.00 | 0.00 | 74 | 1010.4 |
| 20260506194143 | 27 | 71 | 3.2 | 9.7 | 0.00 | 0.00 | 0.00 | 73 | 1010.3 |
| 20260506193652 | 27 | 34 | 0.0 | 6.4 | 0.00 | 0.00 | 0.00 | 72 | 1010.3 |
| 20260506193131 | 27 | 90 | 0.0 | 12.9 | 0.00 | 0.00 | 0.00 | 72 | 1010.3 |
| 20260506192643 | 28 | 60 | 6.4 | 12.9 | 0.00 | 0.00 | 0.00 | 71 | 1010.3 |
| 20260506192152 | 28 | 46 | 0.0 | 9.7 | 0.00 | 0.00 | 0.00 | 72 | 1010.4 |
| 20260506191635 | 27 | 40 | 1.6 | 9.7 | 0.00 | 0.00 | 0.00 | 73 | 1010.6 |
| 20260506191141 | 27 | 34 | 0.0 | 9.7 | 0.00 | 0.00 | 0.00 | 73 | 1010.5 |
| 20260506190639 | 27 | 63 | 4.8 | 9.7 | 0.00 | 0.00 | 0.00 | 74 | 1010.7 |
| 20260506190151 | 28 | 18 | 3.2 | 9.7 | 0.00 | 0.00 | 0.00 | 74 | 1010.6 |
| 20260506185638 | 27 | 55 | 4.8 | 9.7 | 0.00 | 0.00 | 0.00 | 75 | 1010.7 |
| 20260506185141 | 27 | 65 | 4.8 | 12.9 | 0.00 | 0.00 | 0.00 | 76 | 1010.8 |
| 20260506184634 | 27 | 94 | 4.8 | 12.9 | 0.00 | 0.00 | 0.00 | 77 | 1010.8 |
| 20260506184149 | 27 | 130 | 1.6 | 8.0 | 0.00 | 0.00 | 0.00 | 76 | 1010.8 |
| 20260506183631 | 27 | 80 | 0.0 | 11.3 | 0.00 | 0.00 | 0.00 | 74 | 1010.8 |
| 20260506183156 | 27 | 71 | 4.8 | 11.3 | 0.00 | 0.00 | 0.00 | 75 | 1011.0 |
| 20260506182639 | 27 | 83 | 8.0 | 11.3 | 0.00 | 0.00 | 0.00 | 77 | 1011.1 |
| 20260506182150 | 27 | 147 | 8.0 | 14.5 | 0.00 | 0.00 | 0.00 | 76 | 1011.0 |
| 20260506181632 | 27 | 115 | 9.7 | 14.5 | 0.00 | 0.00 | 0.00 | 76 | 1011.0 |
| 20260506181126 | 26 | 82 | 3.2 | 14.5 | 0.00 | 0.00 | 0.00 | 76 | 1011.0 |
| 20260506180632 | 26 | 68 | 4.8 | 14.5 | 0.00 | 0.00 | 0.00 | 78 | 1011.1 |
| 20260506180143 | 26 | 105 | 4.8 | 12.9 | 0.00 | 0.00 | 0.00 | 79 | 1011.2 |
| 20260506175653 | 26 | 85 | 8.0 | 12.9 | 0.00 | 0.00 | 0.00 | 78 | 1011.2 |
| 20260506175134 | 26 | 29 | 1.6 | 9.7 | 0.00 | 0.00 | 0.00 | 81 | 1011.2 |
| 20260506174648 | 25 | 115 | 4.8 | 14.5 | 0.00 | 0.00 | 0.00 | 82 | 1011.2 |
| 20260506174213 | 25 | 102 | 6.4 | 16.1 | 0.00 | 0.00 | 0.00 | 82 | 1011.3 |
| 20260506173631 | 25 | 65 | 11.3 | 17.7 | 0.00 | 0.00 | 0.00 | 80 | 1011.4 |
| 20260506173142 | 25 | 5 | 6.4 | 17.7 | 0.00 | 0.00 | 0.00 | 81 | 1011.5 |
| 20260506172626 | 25 | 355 | 3.2 | 17.7 | 0.00 | 0.00 | 0.00 | 82 | 1011.7 |
| 20260506172156 | 25 | 52 | 8.0 | 16.1 | 0.00 | 0.00 | 0.00 | 82 | 1011.6 |
| 20260506171646 | 25 | 51 | 6.4 | 16.1 | 0.00 | 0.00 | 0.00 | 82 | 1011.7 |
| 20260506171155 | 25 | 31 | 6.4 | 16.1 | 0.00 | 0.00 | 0.00 | 83 | 1011.7 |
| 20260506170658 | 25 | 53 | 6.4 | 16.1 | 0.00 | 0.00 | 0.00 | 83 | 1011.7 |
| 20260506170148 | 25 | 65 | 8.0 | 14.5 | 0.00 | 0.00 | 0.00 | 83 | 1011.5 |
| 20260506165631 | 25 | 34 | 8.0 | 14.5 | 0.00 | 0.00 | 0.00 | 84 | 1011.6 |
| 20260506165141 | 25 | 42 | 4.8 | 14.5 | 0.00 | 0.00 | 0.00 | 84 | 1011.6 |
| 20260506164715 | 25 | 123 | 4.8 | 14.5 | 0.00 | 0.00 | 0.00 | 83 | 1011.7 |
| 20260506164130 | 25 | 54 | 8.0 | 14.5 | 0.00 | 0.00 | 0.00 | 83 | 1011.7 |
| 20260506163642 | 25 | 101 | 4.8 | 12.9 | 0.00 | 0.00 | 0.00 | 84 | 1011.7 |
| 20260506163155 | 25 | 61 | 8.0 | 12.9 | 0.00 | 0.00 | 0.00 | 84 | 1011.6 |
| 20260506162652 | 25 | 88 | 4.8 | 12.9 | 0.00 | 0.00 | 0.00 | 84 | 1011.7 |
| 20260506162139 | 25 | 63 | 8.0 | 11.3 | 0.00 | 0.00 | 0.00 | 85 | 1011.6 |
| 20260506161653 | 25 | 33 | 6.4 | 12.9 | 0.00 | 0.00 | 0.00 | 85 | 1011.7 |
| 20260506161134 | 25 | 107 | 6.4 | 12.9 | 0.00 | 0.00 | 0.00 | 85 | 1011.6 |
| 20260506160649 | 25 | 79 | 6.4 | 11.3 | 0.00 | 0.00 | 0.00 | 86 | 1011.7 |
| 20260506160211 | 25 | 108 | 3.2 | 9.7 | 0.00 | 0.00 | 0.00 | 88 | 1011.5 |
| 20260506155702 | 24 | 42 | 3.2 | 9.7 | 0.00 | 0.00 | 0.00 | 88 | 1011.6 |
| 20260506155144 | 24 | 65 | 1.6 | 11.3 | 0.00 | 0.00 | 0.00 | 88 | 1011.6 |
| 20260506154656 | 24 | 86 | 0.0 | 11.3 | 0.00 | 0.00 | 0.00 | 89 | 1011.5 |
| 20260506154206 | 24 | 58 | 0.0 | 8.0 | 0.00 | 0.00 | 0.00 | 90 | 1011.3 |
| 20260506153632 | 23 | 73 | 3.2 | 8.0 | 0.00 | 0.00 | 0.00 | 90 | 1011.3 |
| 20260506153144 | 23 | 73 | 1.6 | 8.0 | 0.00 | 0.00 | 0.00 | 90 | 1011.1 |
| 20260506152647 | 23 | 73 | 1.6 | 8.0 | 0.00 | 0.00 | 0.00 | 91 | 1011.1 |
| 20260506152138 | 23 | 133 | 0.0 | 6.4 | 0.00 | 0.00 | 0.00 | 91 | 1011.0 |
| 20260506151641 | 23 | 134 | 1.6 | 6.4 | 0.00 | 0.00 | 0.00 | 91 | 1011.0 |
| 20260506151132 | 23 | 86 | 1.6 | 4.8 | 0.00 | 0.00 | 0.00 | 91 | 1010.8 |
| 20260506150629 | 23 | 86 | 1.6 | 8.0 | 0.00 | 0.00 | 0.00 | 91 | 1010.8 |
| 20260506150142 | 23 | 85 | 3.2 | 8.0 | 0.00 | 0.00 | 0.00 | 91 | 1010.7 |
| 20260506145650 | 23 | 72 | 3.2 | 8.0 | 0.00 | 0.00 | 0.00 | 92 | 1010.6 |
| 20260506145129 | 23 | 134 | 1.6 | 6.4 | 0.00 | 0.00 | 0.00 | 92 | 1010.7 |
| 20260506144641 | 23 | 134 | 0.0 | 1.6 | 0.00 | 0.00 | 0.00 | 92 | 1010.8 |
| 20260506144142 | 23 | 134 | 0.0 | 1.6 | 0.00 | 0.00 | 0.00 | 92 | 1010.8 |
| 20260506143635 | 23 | 134 | 0.0 | 0.0 | 0.00 | 0.00 | 0.00 | 92 | 1010.8 |
| 20260506143138 | 23 | 134 | 0.0 | 0.0 | 0.00 | 0.00 | 0.00 | 92 | 1010.8 |
| 20260506142649 | 23 | 134 | 0.0 | 6.4 | 0.00 | 0.00 | 0.00 | 92 | 1010.7 |
| 20260506142159 | 23 | 134 | 1.6 | 6.4 | 0.00 | 0.00 | 0.00 | 92 | 1010.7 |
| 20260506141641 | 23 | 136 | 0.0 | 9.7 | 0.00 | 0.00 | 0.00 | 92 | 1010.7 |
| 20260506141143 | 23 | 137 | 4.8 | 9.7 | 0.00 | 0.00 | 0.00 | 92 | 1010.3 |
| 20260506140653 | 23 | 131 | 0.0 | 8.0 | 0.00 | 0.00 | 0.00 | 92 | 1010.3 |
| 20260506140135 | 23 | 132 | 6.4 | 9.7 | 0.00 | 0.00 | 0.00 | 92 | 1010.2 |
| 20260506135648 | 23 | 109 | 0.0 | 9.7 | 0.00 | 0.00 | 0.00 | 93 | 1010.1 |
| 20260506135216 | 23 | 86 | 3.2 | 8.0 | 0.00 | 0.00 | 0.00 | 93 | 1009.8 |
| 20260506134655 | 23 | 100 | 0.0 | 3.2 | 0.00 | 0.00 | 0.00 | 92 | 1009.8 |
| 20260506134127 | 23 | 132 | 0.0 | 11.3 | 0.00 | 0.00 | 0.00 | 92 | 1009.6 |
| 20260506133629 | 23 | 130 | 6.4 | 11.3 | 0.00 | 0.00 | 0.00 | 92 | 1009.6 |
| 20260506133139 | 23 | 114 | 4.8 | 8.0 | 0.00 | 0.00 | 0.00 | 92 | 1009.5 |
| 20260506132649 | 23 | 108 | 4.8 | 9.7 | 0.00 | 0.00 | 0.00 | 92 | 1009.6 |
| 20260506132219 | 23 | 103 | 4.8 | 9.7 | 0.00 | 0.00 | 0.00 | 93 | 1009.4 |
| 20260506131709 | 23 | 157 | 1.6 | 6.4 | 0.00 | 0.00 | 0.00 | 92 | 1009.5 |
| 20260506131151 | 23 | 126 | 3.2 | 17.7 | 0.00 | 0.00 | 0.00 | 92 | 1009.5 |
| 20260506130640 | 23 | 121 | 6.4 | 17.7 | 0.00 | 0.00 | 0.00 | 92 | 1009.2 |
| 20260506130150 | 23 | 172 | 6.4 | 12.9 | 0.00 | 0.00 | 0.00 | 92 | 1009.1 |
| 20260506125701 | 23 | 100 | 3.2 | 16.1 | 0.00 | 0.00 | 0.00 | 92 | 1009.1 |
| 20260506125149 | 23 | 124 | 9.7 | 16.1 | 0.00 | 0.00 | 0.00 | 92 | 1009.1 |
| 20260506124630 | 23 | 140 | 3.2 | 11.3 | 0.00 | 0.00 | 0.00 | 92 | 1009.1 |
| 20260506124201 | 23 | 133 | 6.4 | 11.3 | 0.00 | 0.00 | 0.00 | 92 | 1009.2 |
| 20260506123651 | 23 | 144 | 6.4 | 9.7 | 0.00 | 0.00 | 0.00 | 92 | 1009.1 |
| 20260506123133 | 23 | 156 | 3.2 | 9.7 | 0.00 | 0.00 | 0.00 | 92 | 1009.2 |
| 20260506122643 | 23 | 140 | 4.8 | 9.7 | 0.00 | 0.00 | 0.00 | 92 | 1009.2 |
| 20260506122132 | 23 | 138 | 4.8 | 6.4 | 0.00 | 0.00 | 0.00 | 92 | 1009.2 |
| 20260506121644 | 23 | 138 | 3.2 | 6.4 | 0.00 | 0.00 | 0.00 | 92 | 1009.2 |
| 20260506121145 | 23 | 136 | 0.0 | 9.7 | 0.00 | 0.00 | 0.00 | 92 | 1009.1 |
| 20260506120655 | 23 | 135 | 1.6 | 9.7 | 0.00 | 0.00 | 0.00 | 91 | 1009.2 |
| 20260506120138 | 23 | 112 | 1.6 | 8.0 | 0.00 | 0.00 | 0.00 | 91 | 1009.1 |
| 20260506115649 | 23 | 111 | 1.6 | 9.7 | 0.00 | 0.00 | 0.00 | 91 | 1009.1 |
| 20260506115220 | 23 | 150 | 3.2 | 9.7 | 0.00 | 0.00 | 0.00 | 91 | 1009.1 |
| 20260506114640 | 23 | 131 | 4.8 | 8.0 | 0.00 | 0.00 | 0.00 | 91 | 1009.0 |
| 20260506114205 | 23 | 167 | 3.2 | 8.0 | 0.00 | 0.00 | 0.00 | 91 | 1009.0 |
| 20260506113638 | 23 | 169 | 1.6 | 9.7 | 0.00 | 0.00 | 0.00 | 91 | 1009.0 |
| 20260506113140 | 23 | 178 | 0.0 | 6.4 | 0.00 | 0.00 | 0.00 | 91 | 1009.0 |
| 20260506112631 | 23 | 178 | 3.2 | 6.4 | 0.00 | 0.00 | 0.00 | 91 | 1009.0 |
| 20260506112132 | 23 | 178 | 1.6 | 9.7 | 0.00 | 0.00 | 0.00 | 91 | 1009.0 |
| 20260506111643 | 23 | 178 | 1.6 | 9.7 | 0.00 | 0.00 | 0.00 | 91 | 1009.0 |
| 20260506111155 | 23 | 163 | 3.2 | 12.9 | 0.00 | 0.00 | 0.00 | 91 | 1008.9 |
| 20260506110637 | 23 | 157 | 4.8 | 12.9 | 0.00 | 0.00 | 0.00 | 91 | 1008.9 |
| 20260506110146 | 23 | 171 | 3.2 | 9.7 | 0.00 | 0.00 | 0.00 | 91 | 1009.0 |
| 20260506105717 | 23 | 196 | 1.6 | 9.7 | 0.00 | 0.00 | 0.00 | 91 | 1009.1 |
| 20260506105137 | 23 | 194 | 3.2 | 9.7 | 0.00 | 0.00 | 0.00 | 91 | 1008.9 |
| 20260506104650 | 23 | 148 | 4.8 | 9.7 | 0.00 | 0.00 | 0.00 | 91 | 1008.9 |
| 20260506104132 | 23 | 140 | 4.8 | 9.7 | 0.00 | 0.00 | 0.00 | 91 | 1008.8 |
| 20260506103644 | 23 | 161 | 4.8 | 9.7 | 0.00 | 0.00 | 0.00 | 91 | 1008.8 |
| 20260506103155 | 23 | 197 | 1.6 | 9.7 | 0.00 | 0.00 | 0.00 | 91 | 1008.8 |
| 20260506102635 | 23 | 115 | 6.4 | 9.7 | 0.00 | 0.00 | 0.00 | 91 | 1008.9 |
| 20260506102147 | 23 | 171 | 3.2 | 12.9 | 0.00 | 0.00 | 0.00 | 91 | 1008.9 |
| 20260506101647 | 23 | 205 | 3.2 | 12.9 | 0.00 | 0.00 | 0.00 | 91 | 1008.9 |
| 20260506101140 | 23 | 173 | 3.2 | 9.7 | 0.00 | 0.00 | 0.00 | 91 | 1008.9 |
| 20260506100649 | 23 | 144 | 8.0 | 12.9 | 0.00 | 0.00 | 0.00 | 90 | 1009.0 |
| 20260506100131 | 23 | 207 | 1.6 | 9.7 | 0.00 | 0.00 | 0.00 | 90 | 1008.9 |
| 20260506095644 | 23 | 209 | 3.2 | 9.7 | 0.00 | 0.00 | 0.00 | 90 | 1008.9 |
| 20260506095146 | 23 | 191 | 3.2 | 11.3 | 0.00 | 0.00 | 0.00 | 90 | 1008.8 |
| 20260506094639 | 23 | 205 | 6.4 | 11.3 | 0.00 | 0.00 | 0.00 | 90 | 1008.7 |
| 20260506094141 | 23 | 188 | 3.2 | 17.7 | 0.00 | 0.00 | 0.00 | 90 | 1008.7 |
| 20260506093633 | 23 | 164 | 8.0 | 17.7 | 0.00 | 0.00 | 0.00 | 90 | 1008.8 |
| 20260506093201 | 23 | 189 | 9.7 | 19.3 | 0.00 | 0.00 | 0.00 | 90 | 1008.8 |
| 20260506092711 | 23 | 188 | 11.3 | 20.9 | 0.00 | 0.00 | 0.00 | 90 | 1008.7 |
| 20260506092158 | 23 | 148 | 11.3 | 20.9 | 0.00 | 0.00 | 0.00 | 90 | 1008.6 |
| 20260506091639 | 23 | 173 | 9.7 | 20.9 | 0.00 | 0.00 | 0.00 | 89 | 1008.5 |
| 20260506091149 | 23 | 138 | 9.7 | 19.3 | 0.00 | 0.00 | 0.00 | 89 | 1008.6 |
| 20260506090633 | 23 | 178 | 9.7 | 22.5 | 0.00 | 0.00 | 0.00 | 89 | 1008.5 |
| 20260506090143 | 23 | 165 | 11.3 | 22.5 | 0.00 | 0.00 | 0.00 | 89 | 1008.5 |
| 20260506085640 | 23 | 175 | 12.9 | 24.1 | 0.00 | 0.00 | 0.00 | 89 | 1008.5 |
| 20260506085130 | 23 | 157 | 8.0 | 20.9 | 0.00 | 0.00 | 0.00 | 89 | 1008.6 |
| 20260506084634 | 23 | 172 | 12.9 | 22.5 | 0.00 | 0.00 | 0.00 | 89 | 1008.6 |
| 20260506084144 | 23 | 137 | 12.9 | 22.5 | 0.00 | 0.00 | 0.00 | 89 | 1008.6 |
| 20260506083656 | 23 | 171 | 11.3 | 19.3 | 0.00 | 0.00 | 0.00 | 90 | 1008.6 |
| 20260506083131 | 23 | 190 | 6.4 | 17.7 | 0.00 | 0.00 | 0.00 | 90 | 1008.6 |
| 20260506082642 | 23 | 175 | 9.7 | 17.7 | 0.00 | 0.00 | 0.00 | 90 | 1008.7 |
| 20260506082145 | 23 | 163 | 9.7 | 17.7 | 0.00 | 0.00 | 0.00 | 90 | 1008.7 |
| 20260506081636 | 23 | 217 | 11.3 | 29.0 | 0.00 | 0.00 | 0.00 | 90 | 1008.7 |
| 20260506081141 | 23 | 204 | 11.3 | 29.0 | 0.00 | 0.00 | 0.00 | 90 | 1008.6 |
| 20260506080633 | 23 | 167 | 12.9 | 25.7 | 0.00 | 0.00 | 0.00 | 90 | 1008.6 |
| 20260506080203 | 23 | 163 | 9.7 | 22.5 | 0.00 | 0.00 | 0.00 | 90 | 1008.7 |
| 20260506073139 | 23 | 131 | 6.4 | 16.1 | 0.00 | 0.00 | 0.00 | 91 | 1008.8 |
| 20260506072648 | 23 | 121 | 9.7 | 20.9 | 0.00 | 0.00 | 0.00 | 91 | 1008.9 |
| 20260506072127 | 23 | 162 | 12.9 | 20.9 | 0.00 | 0.00 | 0.00 | 91 | 1008.9 |
| 20260506071638 | 23 | 140 | 8.0 | 17.7 | 0.00 | 0.00 | 0.00 | 90 | 1009.0 |
| 20260506071150 | 23 | 142 | 9.7 | 19.3 | 0.00 | 0.00 | 0.00 | 90 | 1009.0 |
| 20260506070631 | 23 | 162 | 9.7 | 19.3 | 0.00 | 0.00 | 0.00 | 90 | 1009.1 |
| 20260506070143 | 23 | 119 | 8.0 | 16.1 | 0.00 | 0.00 | 0.00 | 90 | 1009.2 |
| 20260506062210 | 23 | 217 | 11.3 | 19.3 | 0.00 | 0.00 | 0.00 | 90 | 1009.4 |
| 20260506061628 | 23 | 158 | 9.7 | 24.1 | 0.00 | 0.00 | 0.00 | 90 | 1009.4 |
| 20260506061136 | 23 | 158 | 12.9 | 24.1 | 0.00 | 0.00 | 0.00 | 90 | 1009.4 |
| 20260506060645 | 23 | 171 | 9.7 | 22.5 | 0.00 | 0.00 | 0.00 | 90 | 1009.5 |
| 20260506060148 | 23 | 155 | 11.3 | 20.9 | 0.00 | 0.00 | 0.00 | 89 | 1009.4 |
| 20260506051147 | 24 | 148 | 11.3 | 22.5 | 0.00 | 0.00 | 0.00 | 89 | 1009.4 |
| 20260506050627 | 24 | 132 | 11.3 | 19.3 | 0.00 | 0.00 | 0.00 | 89 | 1009.4 |
| 20260506050133 | 24 | 113 | 12.9 | 22.5 | 0.00 | 0.00 | 0.00 | 89 | 1009.2 |
| 20260506044719 | 24 | 135 | 11.3 | 24.1 | 0.00 | 0.00 | 0.00 | 89 | 1009.1 |
| 20260506044139 | 24 | 143 | 12.9 | 19.3 | 0.00 | 0.00 | 0.00 | 89 | 1009.1 |
| 20260506043653 | 24 | 101 | 9.7 | 17.7 | 0.00 | 0.00 | 0.00 | 89 | 1009.1 |
| 20260506043137 | 24 | 106 | 9.7 | 17.7 | 0.00 | 0.00 | 0.00 | 89 | 1009.0 |
| 20260506042628 | 24 | 137 | 9.7 | 17.7 | 0.00 | 0.00 | 0.00 | 89 | 1009.1 |
| 20260506042132 | 24 | 146 | 9.7 | 20.9 | 0.00 | 0.00 | 0.00 | 88 | 1009.1 |
| 20260506041642 | 24 | 157 | 6.4 | 19.3 | 0.00 | 0.00 | 0.00 | 88 | 1009.0 |
| 20260506041134 | 24 | 98 | 14.5 | 20.9 | 0.00 | 0.00 | 0.00 | 88 | 1008.9 |
| 20260506040636 | 25 | 130 | 9.7 | 20.9 | 0.00 | 0.00 | 0.00 | 88 | 1009.0 |
| 20260506040215 | 25 | 139 | 9.7 | 20.9 | 0.00 | 0.00 | 0.00 | 88 | 1008.8 |
| 20260506035658 | 25 | 127 | 12.9 | 24.1 | 0.00 | 0.00 | 0.00 | 87 | 1008.6 |
| 20260506035203 | 25 | 164 | 14.5 | 22.5 | 0.00 | 0.00 | 0.00 | 87 | 1008.7 |
| 20260506034654 | 25 | 140 | 9.7 | 22.5 | 0.00 | 0.00 | 0.00 | 87 | 1008.7 |
| 20260506034203 | 25 | 168 | 11.3 | 22.5 | 0.00 | 0.00 | 0.00 | 87 | 1008.6 |
| 20260506033653 | 25 | 144 | 9.7 | 24.1 | 0.00 | 0.00 | 0.00 | 87 | 1008.5 |
| 20260506033155 | 25 | 113 | 9.7 | 17.7 | 0.00 | 0.00 | 0.00 | 87 | 1008.6 |
| 20260506032705 | 25 | 140 | 8.0 | 16.1 | 0.00 | 0.00 | 0.00 | 86 | 1008.4 |
| 20260506032135 | 25 | 141 | 6.4 | 19.3 | 0.00 | 0.00 | 0.00 | 86 | 1008.3 |
| 20260506031647 | 25 | 133 | 9.7 | 19.3 | 0.00 | 0.00 | 0.00 | 86 | 1008.3 |
| 20260506031153 | 25 | 139 | 11.3 | 17.7 | 0.00 | 0.00 | 0.00 | 85 | 1008.2 |
| 20260506030656 | 25 | 144 | 11.3 | 16.1 | 0.00 | 0.00 | 0.00 | 85 | 1008.2 |
| 20260506030200 | 25 | 155 | 9.7 | 17.7 | 0.00 | 0.00 | 0.00 | 85 | 1008.1 |
| 20260506025651 | 25 | 130 | 8.0 | 19.3 | 0.00 | 0.00 | 0.00 | 84 | 1008.0 |
| 20260506025129 | 26 | 157 | 8.0 | 20.9 | 0.00 | 0.00 | 0.00 | 84 | 1008.0 |
| 20260506024639 | 26 | 155 | 11.3 | 20.9 | 0.00 | 0.00 | 0.00 | 83 | 1007.8 |
| 20260506024149 | 26 | 123 | 11.3 | 20.9 | 0.00 | 0.00 | 0.00 | 83 | 1007.7 |
| 20260506023631 | 26 | 164 | 12.9 | 20.9 | 0.00 | 0.00 | 0.00 | 83 | 1007.6 |
| 20260506023142 | 26 | 147 | 11.3 | 17.7 | 0.00 | 0.00 | 0.00 | 82 | 1007.6 |
| 20260506022653 | 26 | 152 | 3.2 | 17.7 | 0.00 | 0.00 | 0.00 | 81 | 1007.6 |
| 20260506022136 | 26 | 153 | 11.3 | 16.1 | 0.00 | 0.00 | 0.00 | 81 | 1007.4 |
| 20260506021708 | 26 | 137 | 6.4 | 19.3 | 0.00 | 0.00 | 0.00 | 80 | 1007.4 |
| 20260506021156 | 26 | 136 | 8.0 | 19.3 | 0.00 | 0.00 | 0.00 | 80 | 1007.3 |
| 20260506020637 | 26 | 117 | 8.0 | 16.1 | 0.00 | 0.00 | 0.00 | 80 | 1007.3 |
| 20260506020151 | 26 | 122 | 9.7 | 16.1 | 0.00 | 0.00 | 0.00 | 79 | 1007.3 |
| 20260506015634 | 26 | 137 | 6.4 | 12.9 | 0.00 | 0.00 | 0.00 | 79 | 1007.0 |
| 20260506015200 | 26 | 142 | 6.4 | 14.5 | 0.00 | 0.00 | 0.00 | 79 | 1006.9 |
| 20260506014652 | 26 | 175 | 6.4 | 14.5 | 0.00 | 0.00 | 0.00 | 78 | 1006.8 |
| 20260506014126 | 27 | 140 | 6.4 | 14.5 | 0.00 | 0.00 | 0.00 | 78 | 1006.7 |
| 20260506013638 | 27 | 123 | 6.4 | 14.5 | 0.00 | 0.00 | 0.00 | 77 | 1006.8 |
| 20260506013147 | 27 | 139 | 3.2 | 9.7 | 0.00 | 0.00 | 0.00 | 77 | 1006.7 |
| 20260506012632 | 27 | 135 | 3.2 | 12.9 | 0.00 | 0.00 | 0.00 | 76 | 1006.7 |
| 20260506012208 | 27 | 128 | 8.0 | 14.5 | 0.00 | 0.00 | 0.00 | 76 | 1006.6 |
| 20260506011657 | 27 | 132 | 8.0 | 14.5 | 0.00 | 0.00 | 0.00 | 75 | 1006.7 |
| 20260506011159 | 27 | 101 | 3.2 | 9.7 | 0.00 | 0.00 | 0.00 | 75 | 1006.8 |
| 20260506010650 | 27 | 115 | 1.6 | 9.7 | 0.00 | 0.00 | 0.00 | 75 | 1006.8 |
| 20260506010140 | 27 | 95 | 3.2 | 12.9 | 0.00 | 0.00 | 0.00 | 75 | 1006.8 |
| 20260506005650 | 28 | 107 | 8.0 | 12.9 | 0.00 | 0.00 | 0.00 | 74 | 1006.6 |
| 20260506005131 | 28 | 183 | 0.0 | 9.7 | 0.00 | 0.00 | 0.00 | 74 | 1006.6 |
| 20260506004643 | 28 | 121 | 3.2 | 9.7 | 0.00 | 0.00 | 0.00 | 73 | 1006.7 |
| 20260506004150 | 28 | 121 | 0.0 | 8.0 | 0.00 | 0.00 | 0.00 | 73 | 1006.6 |
| 20260506003632 | 28 | 91 | 1.6 | 9.7 | 0.00 | 0.00 | 0.00 | 73 | 1006.6 |
| 20260506003142 | 28 | 92 | 1.6 | 9.7 | 0.00 | 0.00 | 0.00 | 72 | 1006.5 |
| 20260506002644 | 28 | 127 | 0.0 | 9.7 | 0.00 | 0.00 | 0.00 | 72 | 1006.6 |
| 20260506002153 | 28 | 107 | 3.2 | 11.3 | 0.00 | 0.00 | 0.00 | 72 | 1006.5 |
| 20260506001706 | 28 | 112 | 4.8 | 11.3 | 0.00 | 0.00 | 0.00 | 71 | 1006.5 |
| 20260506001153 | 28 | 186 | 0.0 | 0.0 | 0.00 | 0.00 | 0.00 | 70 | 1006.4 |
| 20260506000637 | 28 | 209 | 0.0 | 0.0 | 0.00 | 0.00 | 0.00 | 70 | 1006.5 |
| 20260506000149 | 28 | 209 | 0.0 | 0.0 | 0.00 | 0.00 | 0.00 | 70 | 1006.5 |
| 20260505235631 | 28 | 209 | 0.0 | 8.0 | 0.00 | 0.00 | 0.00 | 69 | 1006.5 |
| 20260505235140 | 28 | 209 | 1.6 | 11.3 | 0.00 | 0.00 | 0.00 | 69 | 1006.5 |
| 20260505234651 | 28 | 173 | 3.2 | 14.5 | 0.00 | 0.00 | 0.00 | 69 | 1006.4 |
| 20260505234132 | 29 | 153 | 4.8 | 14.5 | 0.00 | 0.00 | 0.00 | 69 | 1006.5 |
| 20260505233644 | 29 | 173 | 0.0 | 12.9 | 0.00 | 0.00 | 0.00 | 69 | 1006.5 |
| 20260505233143 | 29 | 128 | 8.0 | 16.1 | 0.00 | 0.00 | 0.00 | 68 | 1006.3 |
| 20260505232656 | 28 | 192 | 6.4 | 16.1 | 0.00 | 0.00 | 0.00 | 69 | 1006.4 |